Find Chuangxin-16B

NORAD ID: 53876 Int'l Des: 2022-102 Owner: IMICAS Country: CN operational
LEOCIRCULAR

現在のビュー

3D地球を読み込み中...

Chuangxin-16Bについて

説明を読み込み中...

次回通過

Passes for default location (London). Set your location on the main map for personalized predictions.

高度履歴

Loading altitude history...

軌道要素

1 53876U 22102B 26149.54357050 .00046190 00000-0 97927-3 0 9994
2 53876 28.9921 321.0739 0002413 70.8497 289.2373 15.43717988203824
Epoch: May 29, 2026 • Age: 27 hours

現在のステータス

高度 435.0 km
速度 7.65 km/s
衛星直下点 -7.32°S, 14.43°E
打ち上げ日 Aug 23, 2022
運用期間 3.7 years
タイプ other

技術仕様

分類 Payload
質量 100.00 kg
乾燥質量 100.00 kg
総質量 100.00 kg
長さ 1.00 m
直径 0.50 m
スパン 2.00 m
形状 Box+pan
製造者 IMICAS
バスタイプ CX16
フェーズステータス In Orbit
所有者/国 IMICAS/CN

Most Searched